Weather in Elanets

Ukraine / Mykolaiv District     47°41′45″N   31°51′14″E
temp.,
°C
wind,
m/s
gust,
m/s
humid.,
%
clouds,
%
prec.,
mm/h
press.,
hPa
HPBL,
m
11 april, sun
sun1100:00+6n33445 0.0 102723
03:00+5nne33510 0.0 102728
06:00+4nne33540 0.0 102735
09:00+9ne57430 0.0 1028415
12:00+13ne56370 0.0 10271588
15:00+15ne56355 0.0 10251778
18:00+14ne564018 0.0 10251568
21:00+10n4956100 0.0 1026173
12 april, mon
mon1200:00+8n4957100 0.0 1025158
03:00+7nne496110 0.0 1024160
06:00+6nne41064100 0.0 1023190
09:00+10nne5854100 0.0 1022448
12:00+12ne566098 0.0 1021822
15:00+15ene4458100 0.0 10201236
18:00+12nne2475100 0.1 1020156
21:00+11nnw2480100 0.3 102096
13 april, tue
tue1300:00+11e1186100 0.1 102016
03:00+10w1194100 1.1 101943
06:00+10ssw1195100 0.4 101917
09:00+10ssw2392100 0.6 1019211
12:00+13s3466100 0.0 1019780
15:00+15sse4459100 0.1 10191285
18:00+13sse4569100 0.0 1018576
21:00+10s4676100 0.1 1019278
14 april, wed
wed1400:00+9s3781100 0.0 1018320
03:00+8sse368598 0.0 1018344
06:00+8se2584100 0.0 1017228
09:00+10se4573100 0.0 1017515
12:00+11se4571100 0.0 1017627
15:00+15s465282 0.1 10151717
18:00+12sse2469100 0.3 1014109
21:00+11nnw1169100 0.4 101425
15 april, thu
thu1500:00+10nne3379100 0.0 101476
03:00+9e4784100 0.0 1013222
06:00+9e3683100 0.0 1013214
09:00+10ese3579100 0.0 1013310
12:00+13se4472100 0.1 1013949
15:00+11ssw5578100 0.5 1013474
18:00+10ssw3487100 0.1 1013351
21:00+9w1193100 0.6 1012114